[[{"header":{"parameterUnit":"m.s-1","parameterCategory":1,"la1":30.2991,"la2":30.254,"lo1":-89.0895,"lo2":-89.0444,"dy":0.0017,"dx":0.0017,"nx":28,"ny":28,"refTime":"2023-09-14T21:00:00:Z","depth":0,"parameterNumber":2,"parameterNumberName":"U-component_of_WINDS"},"data":[0,0,0,0,0,0,0,0,0,0,0,0,0,0,0,0,0,0,0,0,0,0,0,0,0,0,0,0,0,0,0,0,0,0,0,0,0,0,0,0,0,0,0,0,0,0,0,0,0,0,0,0,0,0,0,0,0,0,-1.0157,-1.0157,0,-1.0139,-1.0139,-1.0139,-1.0093,-1.0092,-1.0091,-1.009,-1.0072,-1.0072,-1.0073,0,0,0,0,0,0,0,0,0,0,0,0,0,-1.0154,-1.0154,-1.0157,-1.0157,-1.0157,-1.0139,-1.0139,-1.0139,-1.0093,-1.0092,-1.0091,-1.009,-1.0072,-1.0072,-1.0073,0,0,0,0,0,0,0,0,0,0,0,0,0,-1.0148,-1.0154,-1.0158,-1.0132,-1.013,-1.0139,-1.0139,-1.0139,-1.0094,-1.0092,-1.0091,-1.0089,-1.0072,-1.0072,-1.0073,-1.0106,0,0,-1.0075,-1.0075,0,0,0,0,0,0,0,0,-1.0148,-1.0148,-1.0136,-1.0134,-1.0131,-1.0117,-1.0131,-1.0128,-1.0094,-1.0107,-1.009,-1.0089,-1.0088,-1.0087,-1.0087,-1.0105,-1.0104,-1.0075,-1.0075,-1.0075,-1.0076,0,0,0,0,0,0,0,-1.0149,-1.0148,-1.015,-1.0136,-1.0133,-1.0122,-1.012,-1.013,-1.0106,-1.0106,-1.0103,-1.0101,-1.0087,-1.0087,-1.0086,-1.0104,-1.0075,-1.0075,-1.0076,-1.0076,-1.0148,-1.015,0,0,0,0,0,0,-1.0153,-1.0149,-1.0151,-1.015,-1.0136,-1.0123,-1.0121,-1.0123,-1.0106,-1.0102,-1.0102,-1.0099,-1.0086,-1.0086,-1.0086,-1.0123,-1.0075,-1.0076,-1.0076,-1.0147,-1.0148,-1.015,0,0,0,0,0,0,-1.0153,-1.0153,-1.0152,-1.0148,-1.0147,-1.0125,-1.0128,-1.0123,-1.0123,-1.0103,-1.0099,-1.0107,-1.0085,-1.0085,-1.0101,-1.0122,-1.0076,-1.0077,-1.0145,-1.0147,-1.0149,-1.0198,0,0,0,0,0,0,-1.0153,-1.0154,-1.0165,-1.0149,-1.0148,-1.0167,-1.0129,-1.0124,-1.0124,-1.012,-1.0106,-1.0102,-1.0084,-1.01,-1.0102,-1.0122,-1.0077,-1.0143,-1.0146,-1.0149,-1.0194,-1.0202,-1.0208,0,0,0,0,0,-1.0153,-1.018,-1.0166,-1.0167,-1.0162,-1.0168,-1.0168,-1.0146,-1.0126,-1.0138,-1.0125,-1.0103,-1.0119,-1.0103,-1.0104,-1.0124,-1.0141,-1.0145,-1.0148,-1.0191,-1.02,-1.0208,0,0,0,0,0,0,-1.0199,-1.0177,-1.0162,-1.0184,-1.0179,-1.0161,-1.0175,-1.0156,-1.0156,-1.0152,-1.0125,-1.0122,-1.0142,-1.0135,-1.0116,-1.0155,-1.0127,-1.0131,-1.0159,-1.0167,-1.0174,-1.0175,-1.0078,0,0,0,0,0,-1.0212,-1.0218,-1.0199,-1.0221,-1.0219,-1.0198,-1.02,-1.0183,-1.0176,-1.0174,-1.0162,-1.0157,-1.016,-1.0164,-1.0166,-1.0193,-1.019,-1.0208,-1.0215,-1.022,-1.0224,-1.0238,-1.0246,-1.0162,-1.0162,-1.0161,0,0,-1.0238,-1.0227,-1.0233,-1.023,-1.0223,-1.0231,-1.0196,-1.0206,-1.0211,-1.0175,-1.019,-1.0182,-1.0174,-1.0196,-1.0205,-1.019,-1.0247,-1.0225,-1.023,-1.023,-1.0243,-1.0251,-1.0258,-1.0164,-1.0164,-1.0163,0,0,-1.029,-1.0282,-1.03,-1.0294,-1.0285,-1.0271,-1.0276,-1.0261,-1.0254,-1.0268,-1.0242,-1.0249,-1.0256,-1.0251,-1.025,-1.0302,-1.0281,-1.0304,-1.0339,-1.0353,-1.036,-1.0365,-1.0384,-1.0391,-1.0307,-1.0307,-1.0308,0,-1.0324,-1.0334,-1.0311,-1.0323,-1.0322,-1.0291,-1.0308,-1.0304,-1.0297,-1.0297,-1.0281,-1.029,-1.0282,-1.0303,-1.0316,-1.0316,-1.0321,-1.0305,-1.0361,-1.0366,-1.0371,-1.0389,-1.0396,-1.031,-1.031,-1.031,-1.0309,0,-1.0376,-1.0384,-1.04,-1.0393,-1.0395,-1.041,-1.0389,-1.0393,-1.0377,-1.0365,-1.0381,-1.0371,-1.0371,-1.0375,-1.0359,-1.0394,-1.0385,-1.0365,-1.0336,-1.0382,-1.0398,-1.0405,-1.0314,-1.0313,-1.0312,-1.0312,0,0,-1.0456,-1.0437,-1.0443,-1.044,-1.0429,-1.0434,-1.0448,-1.0448,-1.0453,-1.0449,-1.046,-1.0468,-1.0449,-1.0448,-1.0432,-1.0445,-1.0487,-1.0423,-1.0422,-1.0435,-1.0525,-1.054,-1.0548,-1.0473,-1.0475,-1.0476,-1.0525,0,-1.0504,-1.0526,-1.0506,-1.0532,-1.054,-1.051,-1.0522,-1.0517,-1.0506,-1.0511,-1.05,-1.0506,-1.0481,-1.048,-1.0491,-1.0479,-1.0504,-1.0476,-1.0483,-1.0484,-1.0486,-1.0556,-1.0572,-1.0619,-1.0532,-1.0533,-1.0533,0,-1.0564,-1.0563,-1.059,-1.0578,-1.058,-1.0591,-1.059,-1.0595,-1.0589,-1.058,-1.058,-1.056,-1.0573,-1.0546,-1.0563,-1.0544,-1.0546,-1.0541,-1.0543,-1.0542,-1.0511,-1.0557,-1.0634,-1.0641,-1.0543,-1.0542,-1.0541,0,-1.0619,-1.0625,-1.0642,-1.064,-1.0626,-1.0635,-1.0629,-1.0622,-1.0623,-1.0623,-1.0624,-1.0625,-1.0625,-1.0627,-1.0609,-1.059,-1.0629,-1.0599,-1.0622,-1.0623,-1.0631,-1.0631,-1.0709,-1.0634,-1.0634,-1.0633,-1.0633,0,-1.0675,-1.0693,-1.0666,-1.0677,-1.0696,-1.0673,-1.0693,-1.0684,-1.0678,-1.0686,-1.0662,-1.067,-1.0646,-1.0652,-1.0638,-1.0655,-1.0655,-1.0649,-1.0645,-1.0651,-1.0652,-1.0652,-1.0648,-1.0635,-1.0635,-1.0635,-1.0634,0,-1.0739,-1.0722,-1.0739,-1.0725,-1.0721,-1.0736,-1.0724,-1.0733,-1.0722,-1.0733,-1.0734,-1.0716,-1.0722,-1.0705,-1.0708,-1.0698,-1.0723,-1.0714,-1.0725,-1.0723,-1.0747,-1.0744,-1.0827,-1.0837,-1.0755,-1.0756,-1.0757,0,-1.0776,-1.0789,-1.0776,-1.078,-1.0776,-1.0783,-1.0785,-1.0764,-1.0767,-1.0761,-1.0771,-1.0775,-1.0777,-1.0789,-1.0776,-1.0779,-1.0769,-1.0798,-1.0769,-1.0775,-1.077,-1.0769,-1.077,-1.0804,-1.0805,-1.0806,-1.0806,0,-1.0843,-1.0834,-1.0837,-1.0839,-1.0842,-1.0842,-1.084,-1.0845,-1.0822,-1.0827,-1.0833,-1.0835,-1.0838,-1.0843,-1.0843,-1.0838,-1.0819,-1.0816,-1.0821,-1.0827,-1.0833,-1.083,-1.0741,-1.0813,-1.0813,-1.0812,-1.0812,-1.0812,-1.0894,-1.0904,-1.0897,-1.0902,-1.0899,-1.0898,-1.0906,-1.0896,-1.0901,-1.0902,-1.089,-1.0899,-1.0893,-1.0891,-1.0888,-1.0895,-1.0882,-1.089,-1.0892,-1.0894,-1.0898,-1.0833,-1.0895,-1.0895,-1.0895,-1.0894,-1.0894,0,-1.0959,-1.0954,-1.0959,-1.0957,-1.0962,-1.0943,-1.0941,-1.0946,-1.0954,-1.095,-1.0953,-1.0961,-1.0965,-1.0954,-1.0957,-1.0965,-1.0956,-1.0966,-1.0965,-1.0964,-1.0909,-1.0904,-1.0973,-1.0973,-1.0973,-1.0973,-1.0973,-1.0973,-1.0994,-1.101,-1.1001,-1.1016,-1.1011,-1.1019,-1.1019,-1.1019,-1.1016,-1.1025,-1.1029,-1.1022,-1.1015,-1.1017,-1.1021,-1.1018,-1.102,-1.1033,-1.1027,-1.0976,-1.0968,-1.0961,-1.0956,-1.1034,-1.1034,-1.108,-1.1081,-1.1081]},{"header":{"parameterUnit":"m.s-1","parameterCategory":1,"la1":30.2991,"la2":30.254,"lo1":-89.0895,"lo2":-89.0444,"dy":0.0017,"dx":0.0017,"nx":28,"ny":28,"refTime":"2023-09-14T21:00:00:Z","depth":0,"parameterNumber":3,"parameterNumberName":"V-component_of_WINDS"},"data":[0,0,0,0,0,0,0,0,0,0,0,0,0,0,0,0,0,0,0,0,0,0,0,0,0,0,0,0,0,0,0,0,0,0,0,0,0,0,0,0,0,0,0,0,0,0,0,0,0,0,0,0,0,0,0,0,0,0,-1.8038,-1.8038,0,-1.8019,-1.8018,-1.8018,-1.7979,-1.7978,-1.7977,-1.7976,-1.7957,-1.7957,-1.7957,0,0,0,0,0,0,0,0,0,0,0,0,0,-1.8043,-1.8043,-1.8038,-1.8038,-1.8038,-1.8019,-1.8018,-1.8018,-1.7979,-1.7978,-1.7977,-1.7976,-1.7957,-1.7957,-1.7957,0,0,0,0,0,0,0,0,0,0,0,0,0,-1.8034,-1.8043,-1.8038,-1.8016,-1.8014,-1.8019,-1.8018,-1.8018,-1.7979,-1.7978,-1.7976,-1.7975,-1.7957,-1.7957,-1.7957,-1.7983,0,0,-1.7958,-1.7958,0,0,0,0,0,0,0,0,-1.8034,-1.8034,-1.8019,-1.8017,-1.8015,-1.8,-1.8013,-1.8006,-1.7979,-1.7992,-1.7976,-1.7975,-1.7972,-1.7971,-1.797,-1.7982,-1.7981,-1.7958,-1.7959,-1.7959,-1.7959,0,0,0,0,0,0,0,-1.8035,-1.8034,-1.803,-1.8019,-1.8016,-1.8007,-1.8004,-1.8011,-1.7989,-1.7991,-1.7988,-1.7986,-1.7971,-1.797,-1.7969,-1.7981,-1.7958,-1.7959,-1.7959,-1.7959,-1.8014,-1.8015,0,0,0,0,0,0,-1.8039,-1.8035,-1.8031,-1.803,-1.8022,-1.8008,-1.8005,-1.8006,-1.7989,-1.7985,-1.7987,-1.7984,-1.797,-1.7969,-1.7968,-1.7998,-1.7959,-1.7959,-1.7959,-1.8012,-1.8014,-1.8015,0,0,0,0,0,0,-1.8039,-1.8039,-1.8032,-1.8032,-1.803,-1.8009,-1.801,-1.8006,-1.8005,-1.7986,-1.7982,-1.799,-1.7969,-1.7968,-1.798,-1.7996,-1.7959,-1.7959,-1.8011,-1.8013,-1.8014,-1.8056,0,0,0,0,0,0,-1.8039,-1.8039,-1.8048,-1.8032,-1.803,-1.8043,-1.8011,-1.8007,-1.8006,-1.8002,-1.7988,-1.7984,-1.7968,-1.7979,-1.798,-1.7996,-1.796,-1.8009,-1.8012,-1.8014,-1.8053,-1.8059,-1.8064,0,0,0,0,0,-1.804,-1.8061,-1.8049,-1.8049,-1.8041,-1.8044,-1.8043,-1.8023,-1.8007,-1.8016,-1.8004,-1.7985,-1.7994,-1.7981,-1.7981,-1.7998,-1.8008,-1.8011,-1.8014,-1.8051,-1.8058,-1.8064,0,0,0,0,0,0,-1.808,-1.8058,-1.8045,-1.8062,-1.8055,-1.8038,-1.8049,-1.8032,-1.803,-1.8026,-1.8002,-1.8,-1.8015,-1.8007,-1.7993,-1.8022,-1.7998,-1.8001,-1.8026,-1.8033,-1.8038,-1.804,-1.796,0,0,0,0,0,-1.8091,-1.8094,-1.8076,-1.8092,-1.809,-1.807,-1.807,-1.8056,-1.8048,-1.8045,-1.8034,-1.8028,-1.8029,-1.8031,-1.8031,-1.8052,-1.8048,-1.8063,-1.8069,-1.8074,-1.8077,-1.8088,-1.8094,-1.8024,-1.8024,-1.8024,0,0,-1.8113,-1.8102,-1.8106,-1.81,-1.8093,-1.8098,-1.8068,-1.8074,-1.8078,-1.8046,-1.8057,-1.8048,-1.804,-1.8056,-1.8063,-1.805,-1.8095,-1.8077,-1.8081,-1.8081,-1.8091,-1.8098,-1.8104,-1.8026,-1.8026,-1.8026,0,0,-1.8156,-1.8148,-1.8161,-1.8155,-1.8145,-1.8131,-1.8135,-1.812,-1.8113,-1.8123,-1.81,-1.8104,-1.8107,-1.8102,-1.81,-1.8142,-1.8124,-1.8143,-1.8172,-1.8183,-1.8188,-1.8193,-1.8208,-1.8214,-1.8146,-1.8146,-1.8146,0,-1.8185,-1.8191,-1.8169,-1.8177,-1.8176,-1.8148,-1.8161,-1.8156,-1.8147,-1.8147,-1.8133,-1.8137,-1.8129,-1.8144,-1.8154,-1.8154,-1.8157,-1.8144,-1.8189,-1.8194,-1.8198,-1.8212,-1.8218,-1.8148,-1.8148,-1.8147,-1.8147,0,-1.8227,-1.8232,-1.8244,-1.8235,-1.8235,-1.8246,-1.8226,-1.8229,-1.8215,-1.8203,-1.8214,-1.8204,-1.8202,-1.8204,-1.819,-1.8218,-1.821,-1.8193,-1.8169,-1.8207,-1.822,-1.8225,-1.8151,-1.8151,-1.815,-1.8149,0,0,-1.8294,-1.8275,-1.8279,-1.8275,-1.8263,-1.8266,-1.8276,-1.8274,-1.8277,-1.8272,-1.8279,-1.8283,-1.8267,-1.8265,-1.825,-1.826,-1.8294,-1.8241,-1.8241,-1.8252,-1.8324,-1.8337,-1.8344,-1.8282,-1.8283,-1.8284,-1.8325,0,-1.8334,-1.8349,-1.8331,-1.835,-1.8354,-1.8328,-1.8336,-1.833,-1.832,-1.8322,-1.8311,-1.8314,-1.8293,-1.8291,-1.83,-1.8288,-1.8308,-1.8285,-1.829,-1.829,-1.8293,-1.835,-1.8364,-1.8403,-1.833,-1.8331,-1.8331,0,-1.8383,-1.838,-1.84,-1.8387,-1.8388,-1.8396,-1.8393,-1.8395,-1.8388,-1.8379,-1.8377,-1.836,-1.8369,-1.8346,-1.8358,-1.8342,-1.8343,-1.8338,-1.8339,-1.8339,-1.8313,-1.8352,-1.8415,-1.8421,-1.8339,-1.8338,-1.8338,0,-1.843,-1.8432,-1.8443,-1.8441,-1.8426,-1.8432,-1.8426,-1.8417,-1.8417,-1.8415,-1.8415,-1.8413,-1.8413,-1.8412,-1.8395,-1.838,-1.841,-1.8385,-1.8404,-1.8404,-1.8411,-1.8411,-1.8475,-1.8412,-1.8412,-1.8412,-1.8412,0,-1.8477,-1.849,-1.8465,-1.8472,-1.8486,-1.8465,-1.848,-1.8471,-1.8463,-1.8469,-1.8446,-1.8452,-1.8429,-1.8433,-1.842,-1.8432,-1.8432,-1.8426,-1.8422,-1.8428,-1.8429,-1.8428,-1.8425,-1.8413,-1.8413,-1.8413,-1.8412,0,-1.8532,-1.8515,-1.8527,-1.8511,-1.8508,-1.8519,-1.8506,-1.8513,-1.8501,-1.8509,-1.8509,-1.8491,-1.8494,-1.8477,-1.8477,-1.8469,-1.8488,-1.8479,-1.849,-1.8488,-1.8507,-1.8506,-1.8574,-1.8582,-1.8513,-1.8514,-1.8514,0,-1.8563,-1.8572,-1.8558,-1.856,-1.8555,-1.8559,-1.8559,-1.8539,-1.854,-1.8532,-1.854,-1.8541,-1.8541,-1.8547,-1.8534,-1.8534,-1.8526,-1.855,-1.8526,-1.8531,-1.8527,-1.8526,-1.8527,-1.8555,-1.8556,-1.8556,-1.8557,0,-1.8619,-1.8611,-1.8611,-1.861,-1.861,-1.8608,-1.8604,-1.8607,-1.8586,-1.8588,-1.8591,-1.8591,-1.8591,-1.8593,-1.859,-1.8585,-1.8568,-1.8565,-1.8569,-1.8575,-1.8581,-1.8578,-1.8504,-1.8563,-1.8562,-1.8562,-1.8562,-1.8561,-1.8663,-1.867,-1.8661,-1.8663,-1.8658,-1.8656,-1.8661,-1.865,-1.8652,-1.8651,-1.8639,-1.8644,-1.8637,-1.8632,-1.8628,-1.8632,-1.8621,-1.8627,-1.8629,-1.8631,-1.8634,-1.858,-1.8632,-1.8631,-1.8631,-1.8631,-1.8631,0,-1.8718,-1.8711,-1.8713,-1.8709,-1.8711,-1.8694,-1.8689,-1.8692,-1.8697,-1.8691,-1.8692,-1.8696,-1.8697,-1.8685,-1.8685,-1.8691,-1.8683,-1.8692,-1.8691,-1.869,-1.8644,-1.864,-1.8698,-1.8698,-1.8698,-1.8698,-1.8698,-1.8698,-1.8747,-1.8759,-1.8749,-1.8759,-1.8752,-1.8757,-1.8755,-1.8753,-1.8749,-1.8754,-1.8755,-1.8747,-1.8739,-1.8738,-1.874,-1.8736,-1.8737,-1.8748,-1.8742,-1.87,-1.8693,-1.8687,-1.8683,-1.8749,-1.8749,-1.8788,-1.8788,-1.8788]}]]